When you browse on this site, cookies collect data to enhance your experience and personalize the content and advertising you see.
Visit our Privacy Policy to learn more. By continuing to use the site, you agree to this use of cookies and data.

Hourly Weather Sikornik

Today, 5 July, Sunday

Time Temperature Precipitation Wind Pressure Humidity
00:00 +18°C° 0 mm 1 mps 733 mmHg 76%
01:00 +17°C° 0 mm 2 mps 733 mmHg 77%
02:00 +17°C° 0 mm 2 mps 732 mmHg 79%
03:00 +16°C° 0 mm 3 mps 732 mmHg 81%
04:00 +16°C° 0 mm 3 mps 732 mmHg 83%
05:00 +18°C° 0 mm 3 mps 732 mmHg 80%
06:00 +19°C° 0 mm 3 mps 732 mmHg 77%
07:00 +21°C° 0 mm 4 mps 732 mmHg 74%
08:00 +22°C° 0 mm 4 mps 732 mmHg 68%
09:00 +23°C° 0 mm 4 mps 733 mmHg 63%
10:00 +26°C° 0 mm 4 mps 733 mmHg 57%
11:00 +27°C° 0 mm 4 mps 732 mmHg 56%
12:00 +27°C° 0 mm 4 mps 732 mmHg 54%
13:00 +28°C° 0 mm 4 mps 732 mmHg 53%
14:00 +28°C° 0.1 mm 3 mps 732 mmHg 56%
15:00 +28°C° 0.1 mm 3 mps 731 mmHg 59%
16:00 +28°C° 0.1 mm 3 mps 731 mmHg 62%
17:00 +27°C° 0.1 mm 3 mps 731 mmHg 67%
18:00 +26°C° 0.1 mm 2 mps 731 mmHg 71%
19:00 +25°C° 0.1 mm 2 mps 731 mmHg 76%
20:00 +23°C° 0 mm 2 mps 731 mmHg 80%
21:00 +21°C° 0 mm 2 mps 731 mmHg 83%
22:00 +20°C° 0 mm 2 mps 731 mmHg 87%
23:00 +20°C° 0 mm 3 mps 731 mmHg 88%

Tomorrow, 6 July, Monday

Time Temperature Precipitation Wind Pressure Humidity
00:00 +19°C° 0 mm 3 mps 731 mmHg 89%
01:00 +19°C° 0 mm 3 mps 730 mmHg 90%
02:00 +19°C° 0 mm 3 mps 730 mmHg 89%
03:00 +19°C° 0 mm 3 mps 730 mmHg 88%
04:00 +19°C° 0 mm 3 mps 730 mmHg 88%
05:00 +20°C° 0 mm 3 mps 730 mmHg 85%
06:00 +21°C° 0 mm 3 mps 730 mmHg 82%
07:00 +22°C° 0 mm 4 mps 730 mmHg 80%
08:00 +23°C° 0.1 mm 4 mps 730 mmHg 74%
09:00 +25°C° 0.1 mm 4 mps 730 mmHg 68%
10:00 +26°C° 0.1 mm 4 mps 730 mmHg 61%
11:00 +26°C° 0.2 mm 5 mps 729 mmHg 62%
12:00 +26°C° 0.2 mm 5 mps 729 mmHg 62%
13:00 +26°C° 0.2 mm 6 mps 729 mmHg 63%
14:00 +25°C° 0.1 mm 5 mps 729 mmHg 63%
15:00 +23°C° 0.1 mm 5 mps 729 mmHg 64%
16:00 +22°C° 0.1 mm 5 mps 729 mmHg 65%
17:00 +21°C° 0 mm 4 mps 729 mmHg 67%
18:00 +20°C° 0 mm 3 mps 729 mmHg 69%
19:00 +19°C° 0 mm 2 mps 729 mmHg 71%
20:00 +18°C° 0 mm 3 mps 729 mmHg 69%
21:00 +17°C° 0 mm 4 mps 730 mmHg 67%
22:00 +16°C° 0 mm 5 mps 731 mmHg 65%
23:00 +15°C° 0.1 mm 4 mps 731 mmHg 69%

Day after tomorrow, 7 July, Tuesday

Time Temperature Precipitation Wind Pressure Humidity
00:00 +14°C° 0.1 mm 4 mps 731 mmHg 72%
01:00 +14°C° 0.1 mm 3 mps 732 mmHg 76%
02:00 +13°C° 0.1 mm 3 mps 732 mmHg 77%
03:00 +13°C° 0.1 mm 3 mps 732 mmHg 79%
04:00 +13°C° 0.1 mm 2 mps 732 mmHg 81%
05:00 +13°C° 0 mm 3 mps 732 mmHg 80%
06:00 +13°C° 0 mm 4 mps 732 mmHg 80%
07:00 +13°C° 0 mm 5 mps 733 mmHg 79%
08:00 +14°C° 0.1 mm 5 mps 733 mmHg 76%
09:00 +15°C° 0.1 mm 5 mps 733 mmHg 72%
10:00 +16°C° 0.1 mm 5 mps 733 mmHg 68%
11:00 +16°C° 0.2 mm 5 mps 733 mmHg 66%
12:00 +17°C° 0.2 mm 5 mps 733 mmHg 63%
13:00 +19°C° 0.2 mm 5 mps 733 mmHg 60%
14:00 +17°C° 0.1 mm 6 mps 733 mmHg 60%
15:00 +17°C° 0.1 mm 6 mps 733 mmHg 60%
16:00 +17°C° 0.1 mm 6 mps 733 mmHg 61%
17:00 +16°C° 0 mm 5 mps 733 mmHg 65%
18:00 +15°C° 0 mm 4 mps 733 mmHg 69%
19:00 +14°C° 0 mm 3 mps 733 mmHg 73%
20:00 +13°C° 0 mm 3 mps 734 mmHg 75%
21:00 +12°C° 0 mm 2 mps 734 mmHg 78%
22:00 +10°C° 0 mm 2 mps 734 mmHg 80%
23:00 +11°C° 0 mm 1 mps 734 mmHg 82%

8 July, Wednesday

Time Temperature Precipitation Wind Pressure Humidity
00:00 +11°C° 0 mm 1 mps 734 mmHg 83%
01:00 +10°C° 0 mm 1 mps 734 mmHg 85%
02:00 +10°C° 0 mm 1 mps 734 mmHg 86%
03:00 +10°C° 0 mm 1 mps 734 mmHg 86%
04:00 +9°C° 0 mm 1 mps 734 mmHg 87%
05:00 +10°C° 0 mm 2 mps 734 mmHg 81%
06:00 +13°C° 0 mm 2 mps 734 mmHg 75%
07:00 +15°C° 0 mm 2 mps 734 mmHg 69%
08:00 +16°C° 0 mm 2 mps 734 mmHg 64%
09:00 +17°C° 0 mm 2 mps 734 mmHg 58%
10:00 +18°C° 0 mm 3 mps 733 mmHg 53%
11:00 +19°C° 0 mm 3 mps 733 mmHg 50%
12:00 +20°C° 0 mm 3 mps 733 mmHg 48%
13:00 +21°C° 0 mm 3 mps 733 mmHg 46%
14:00 +21°C° 0 mm 3 mps 733 mmHg 47%
15:00 +21°C° 0 mm 3 mps 733 mmHg 49%
16:00 +21°C° 0 mm 3 mps 732 mmHg 51%
17:00 +20°C° 0 mm 3 mps 732 mmHg 59%
18:00 +18°C° 0 mm 3 mps 732 mmHg 67%
19:00 +17°C° 0 mm 2 mps 732 mmHg 75%
20:00 +16°C° 0.1 mm 2 mps 732 mmHg 78%
21:00 +15°C° 0.1 mm 1 mps 733 mmHg 81%
22:00 +13°C° 0.1 mm 0 mps 733 mmHg 85%
23:00 +14°C° 0 mm 1 mps 733 mmHg 87%

9 July, Thursday

Time Temperature Precipitation Wind Pressure Humidity
00:00 +13°C° 0 mm 1 mps 733 mmHg 89%
01:00 +13°C° 0 mm 1 mps 733 mmHg 91%
02:00 +12°C° 0 mm 1 mps 733 mmHg 91%
03:00 +12°C° 0 mm 2 mps 733 mmHg 92%
04:00 +12°C° 0 mm 2 mps 733 mmHg 92%
05:00 +12°C° 0 mm 3 mps 734 mmHg 90%
06:00 +13°C° 0 mm 3 mps 734 mmHg 88%
07:00 +15°C° 0 mm 4 mps 735 mmHg 86%
08:00 +15°C° 0.1 mm 4 mps 735 mmHg 84%
09:00 +15°C° 0.1 mm 4 mps 735 mmHg 82%
10:00 +17°C° 0.1 mm 4 mps 736 mmHg 80%
11:00 +18°C° 0 mm 4 mps 736 mmHg 73%
12:00 +19°C° 0 mm 4 mps 736 mmHg 66%
13:00 +20°C° 0 mm 4 mps 736 mmHg 59%
14:00 +20°C° 0 mm 4 mps 736 mmHg 58%
15:00 +20°C° 0 mm 3 mps 736 mmHg 57%
16:00 +20°C° 0 mm 3 mps 736 mmHg 55%
17:00 +19°C° 0 mm 3 mps 736 mmHg 60%
18:00 +18°C° 0 mm 2 mps 735 mmHg 66%
19:00 +17°C° 0 mm 2 mps 735 mmHg 71%
20:00 +16°C° 0 mm 1 mps 736 mmHg 73%
21:00 +15°C° 0 mm 1 mps 736 mmHg 76%
22:00 +13°C° 0 mm 1 mps 736 mmHg 79%
23:00 +13°C° 0 mm 1 mps 736 mmHg 80%

10 July, Friday

Time Temperature Precipitation Wind Pressure Humidity
00:00 +13°C° 0 mm 1 mps 736 mmHg 80%
01:00 +12°C° 0 mm 1 mps 736 mmHg 81%
02:00 +12°C° 0 mm 1 mps 735 mmHg 82%
03:00 +12°C° 0 mm 1 mps 735 mmHg 83%
04:00 +12°C° 0 mm 2 mps 735 mmHg 83%
05:00 +13°C° 0 mm 2 mps 735 mmHg 80%
06:00 +15°C° 0 mm 2 mps 735 mmHg 77%
07:00 +17°C° 0 mm 3 mps 735 mmHg 73%
08:00 +19°C° 0 mm 3 mps 735 mmHg 68%
09:00 +20°C° 0 mm 3 mps 735 mmHg 63%
10:00 +22°C° 0 mm 3 mps 735 mmHg 58%
11:00 +24°C° 0 mm 3 mps 735 mmHg 56%
12:00 +25°C° 0 mm 3 mps 734 mmHg 53%
13:00 +26°C° 0 mm 2 mps 734 mmHg 51%
14:00 +26°C° 0 mm 2 mps 734 mmHg 52%
15:00 +26°C° 0 mm 2 mps 734 mmHg 54%
16:00 +26°C° 0 mm 2 mps 733 mmHg 56%
17:00 +25°C° 0 mm 3 mps 733 mmHg 63%
18:00 +24°C° 0 mm 3 mps 733 mmHg 70%
19:00 +22°C° 0 mm 3 mps 733 mmHg 77%
20:00 +21°C° 0 mm 3 mps 733 mmHg 80%
21:00 +20°C° 0 mm 3 mps 733 mmHg 83%
22:00 +19°C° 0 mm 2 mps 733 mmHg 86%
23:00 +19°C° 0 mm 3 mps 733 mmHg 86%
Show more